Location: Monrovia
(34.7865°N, 86.7139°W)
Time: 14:09:19
(UTC+00:00)

SL-16 R/B - Pass Details

Date: 14 July 2020
Orbit: 985 x 1007 km, 99.5° (Epoch: 13 August)

Event Time Altitude Azimuth Distance (km) Brightness Sun altitude
Exits shadow 07:12:18 49° 109° (ESE) 1,273 3.0 -30.5°
Maximum altitude 07:13:26 56° 71° (ENE) 1,182 3.0 -30.5°
Drops below altitude 10° 07:19:32 10° 356° (N) 2,785 5.6 -30.0°
Sets 07:22:04 0° 352° (N) 3,740 6.4 -29.8°
